Regional Weather Roundup
Issued by NWS Little Rock, AR

Home | Current Version | Previous Version | Graphics & Text | Print | Product List | Glossary On
Versions: 1 2 3 4 5 6 7 8 9 10 11 12 13 14 15 16 17 18 19 20 21 22 23 24 25 26 27 28 29 30 31 32 33 34 35 36 37 38 39 40 41 42 43 44 45 46 47 48 49
000
ASUS44 KLZK 230405
RWRLZK

WEATHER ROUNDUP FOR ARKANSAS
NATIONAL WEATHER SERVICE LITTLE ROCK AR
1100 PM CDT TUE JUL 22 2014

NOTE: "FAIR" INDICATES FEW OR NO CLOUDS BELOW 12,000 FEET WITH NO
SIGNIFICANT WEATHER AND/OR OBSTRUCTIONS TO VISIBILITY.

ARZ001-003-010-029-230500-
NORTHWEST ARKANSAS

CITY           SKY/WX    TMP DP  RH WIND       PRES   REMARKS
FAYETTEVILLE   PTCLDY    76  73  91 SW6       30.11R
FORT SMITH     CLOUDY    83  74  74 CALM      30.06R HX  89
HARRISON       CLEAR     77  74  90 S5        30.09S
BENTONVILLE    CLEAR     81  73  78 W3        30.11S HX  85
ROGERS         CLEAR     79  74  84 W3        30.11S
SILOAM SPGS    CLEAR     79  70  73 W3        30.12R
HIGHFILL       CLEAR     80  76  87 W6        30.10R HX  86
$$

ARZ004-005-016-230500-
NORTH CENTRAL ARKANSAS

CITY           SKY/WX    TMP DP  RH WIND       PRES   REMARKS
BATESVILLE     CLEAR     73  70  88 CALM      30.07R
FLIPPIN        CLEAR     77  68  73 CALM      30.08R
MTN HOME       CLEAR     76  71  85 CALM      30.07R
$$

ARZ040-041-230500-
WEST CENTRAL ARKANSAS

CITY           SKY/WX    TMP DP  RH WIND       PRES   REMARKS
MENA           CLEAR     77  72  83 CALM      30.10S
MOUNT IDA      CLEAR     73  71  93 CALM      30.06S FOG
$$

ARZ009-017-025-026-028-230500-
NORTHEAST ARKANSAS

CITY           SKY/WX    TMP DP  RH WIND       PRES   REMARKS
CORNING        FAIR      75  73  94 CALM      30.06S
JONESBORO      CLEAR     72  69  90 CALM      30.06R
NEWPORT        CLEAR     76  72  87 S3        30.07R
WALNUT RIDGE   CLEAR     77  61  57 SE3       30.06R
BLYTHEVILLE    PTCLDY    76  72  87 CALM      30.07R
$$

ARZ022-023-033-042-044-230500-
CENTRAL ARKANSAS

CITY           SKY/WX    TMP DP  RH WIND       PRES   REMARKS
LITTLE ROCK    PTCLDY    78  70  76 CALM      30.06R
N LITTLE ROCK  PTCLDY    77  72  84 S5        30.06R
JACKSONVILLE   CLEAR     72  70  92 E2        30.06R
SEARCY         CLEAR     72  72 100 CALM      30.07R FOG
HOT SPRINGS    CLEAR     74  70  87 CALM      30.08R
RUSSELLVILLE   CLEAR     75  72  90 CALM      30.06R
CLINTON        FAIR      73  72  94 CALM      30.08R FOG
$$

ARZ036-230500-
EAST ARKANSAS

CITY           SKY/WX    TMP DP  RH WIND       PRES   REMARKS
WEST MEMPHIS   CLEAR     74  73  97 N3        30.06R
$$

ARZ050-053-066-070-073-230500-
SOUTHWEST ARKANSAS

CITY           SKY/WX    TMP DP  RH WIND       PRES   REMARKS
ARKADELPHIA    FAIR      73  72  97 CALM      30.07R
CAMDEN         CLEAR     73  70  88 CALM      30.06R FOG
TEXARKANA      CLEAR     75  69  81 SE3       30.06S
EL DORADO      CLEAR     73  72  96 CALM      30.07R
DE QUEEN       FOG       74  73  97 CALM      30.04S VSB 3/4
$$

ARZ056-057-069-230500-
SOUTHEAST ARKANSAS

CITY           SKY/WX    TMP DP  RH WIND       PRES   REMARKS
PINE BLUFF     CLEAR     76  72  87 CALM      30.07R
STUTTGART      PTCLDY    79  70  73 SE6       30.07S
MONTICELLO     CLEAR     75  71  87 CALM      30.06S

$$





USA.gov is the U.S. government's official web portal to all federal, state and local government web resources and services.